Change the Weather History Date:

Thursday, February 2, 2012

  Actual Average Record
Temperature  
Mean Temperature 26 °F -  
Max Temperature 34 °F 31 °F 49 °F (1982)
Min Temperature 17 °F 18 °F -18 °F (1947)
Degree Days  
Heating Degree Days 40    
Moisture  
Dew Point 26 °F    
Average Humidity 94    
Maximum Humidity 100    
Minimum Humidity 85    
Precipitation  
Precipitation 0.66 in - - ()
Sea Level Pressure  
Sea Level Pressure 28.98 in    
Wind  
Wind Speed 13 mph (SSE)    
Max Wind Speed 20 mph    
Max Gust Speed 36 mph    
Visibility 3 miles    
Events Fog , Snow    
Averages and records for this station are not official NWS values.
T = Trace of Precipitation, MM = Missing Value Source: NWS Daily Summary

Daily Weather History Graph

Daily Weather History Graph

Search for Another Location

Airport or City:

Trip Planner

Search our weather history database for the weather conditions in past years. The results will help you decide how hot, cold, wet, or windy it might be!

Date:

Astronomy

Feb. 02, 2012 Rise Set
Actual Time 9:15 AM AKST 5:24 PM AKST
Civil Twilight 8:29 AM AKST 6:10 PM AKST
Nautical Twilight 7:39 AM AKST 7:00 PM AKST
Astronomical Twilight 6:51 AM AKST 7:48 PM AKST
Moon 12:05 PM AKST (2/2) 5:44 AM AKST (2/2)
Length of Visible Light 9h 41m
Length of Day
8h 08m
Waxing Gibbous, 75% of the Moon is Illuminated
Feb 2
Waxing Gibbous
Feb 7
Full
Feb 14
Last Quarter
Feb 21
New
Feb 29
First Quarter

Hourly Weather History & Observations

Time (AKST) Temp. Windchill Dew Point Humidity Pressure Visibility Wind Dir Wind Speed Gust Speed Precip Events Conditions
12:53 AM 34.0 °F 24.6 °F 30.0 °F 85% 28.63 in 10.0 mi ESE 13.8 mph - N/A   Mostly Cloudy
1:30 AM 33.8 °F 25.3 °F 30.2 °F 87% 28.65 in 2.5 mi ESE 11.5 mph 21.9 mph 0.00 in Snow Light Snow
1:48 AM 33.8 °F 26.4 °F 32.0 °F 93% 28.64 in 3.0 mi East 9.2 mph - 0.02 in Snow Light Snow
1:53 AM 32.0 °F 23.6 °F 32.0 °F 100% 28.65 in 5.0 mi East 10.4 mph - 0.02 in Snow Light Snow
2:10 AM 32.0 °F 23.0 °F 32.0 °F 100% 28.66 in 1.8 mi East 11.5 mph - 0.01 in Snow Light Snow
2:17 AM 32.0 °F 24.2 °F 32.0 °F 100% 28.66 in 1.0 mi East 9.2 mph - 0.02 in Snow Light Snow
2:35 AM 32.0 °F 24.2 °F 32.0 °F 100% 28.67 in 3.0 mi ENE 9.2 mph - 0.04 in Snow Light Snow
2:47 AM 32.0 °F 22.1 °F 32.0 °F 100% 28.68 in 1.8 mi ESE 13.8 mph 20.7 mph 0.05 in Snow Light Snow
2:53 AM 32.0 °F 23.0 °F 32.0 °F 100% 28.68 in 1.8 mi East 11.5 mph - 0.06 in Snow Light Snow
2:58 AM 32.0 °F 23.6 °F 32.0 °F 100% 28.68 in 2.5 mi ESE 10.4 mph - 0.00 in Snow Light Snow
3:06 AM 32.0 °F 24.8 °F 32.0 °F 100% 28.69 in 5.0 mi ESE 8.1 mph - 0.00 in Snow Light Snow
3:53 AM 33.1 °F 23.9 °F 30.9 °F 92% 28.70 in 7.0 mi East 12.7 mph 21.9 mph 0.02 in Snow Light Snow
4:18 AM 33.8 °F 22.8 °F 30.2 °F 87% 28.72 in 2.0 mi East 18.4 mph 26.5 mph 0.01 in Snow Light Snow
4:27 AM 33.8 °F 24.8 °F 30.2 °F 87% 28.73 in 5.0 mi ESE 12.7 mph 26.5 mph 0.01 in Snow Light Snow
4:53 AM 33.1 °F 22.6 °F 30.9 °F 92% 28.74 in 4.0 mi ESE 16.1 mph 21.9 mph 0.01 in Snow Light Snow
5:45 AM 33.8 °F 22.8 °F 30.2 °F 87% 28.76 in 2.0 mi ESE 18.4 mph 33.4 mph 0.01 in Snow Light Snow
5:53 AM 33.1 °F 22.6 °F 30.9 °F 92% 28.76 in 3.0 mi ESE 16.1 mph 27.6 mph 0.01 in Snow Light Snow
6:07 AM 33.8 °F 23.5 °F 30.2 °F 87% 28.77 in 1.8 mi ESE 16.1 mph 31.1 mph 0.01 in Snow Light Snow
6:21 AM 33.8 °F 24.3 °F 30.2 °F 87% 28.78 in 3.0 mi ESE 13.8 mph 24.2 mph 0.02 in Snow Light Snow
6:53 AM 34.0 °F 23.0 °F 30.0 °F 85% 28.80 in 4.0 mi ESE 18.4 mph 29.9 mph 0.03 in Snow Light Snow
7:03 AM 33.8 °F 22.8 °F 30.2 °F 87% 28.79 in 1.8 mi ESE 18.4 mph 35.7 mph 0.00 in Snow Light Snow
7:10 AM 33.8 °F 23.5 °F 30.2 °F 87% 28.79 in 2.0 mi East 16.1 mph 29.9 mph 0.00 in Snow Light Snow
7:53 AM 33.1 °F 21.5 °F 30.9 °F 92% 28.81 in 4.0 mi SE 19.6 mph 27.6 mph 0.01 in Snow Light Snow
8:48 AM 33.8 °F 23.2 °F 30.2 °F 87% 28.85 in 1.8 mi ESE 17.3 mph 32.2 mph 0.01 in Snow Light Snow
8:53 AM 33.1 °F 22.6 °F 30.9 °F 92% 28.86 in 2.0 mi ESE 16.1 mph 32.2 mph 0.01 in Snow Light Snow
9:00 AM 32.0 °F 21.2 °F 30.2 °F 93% 28.86 in 1.2 mi ESE 16.1 mph 25.3 mph 0.01 in Snow Light Snow
9:20 AM 32.0 °F 20.8 °F 30.2 °F 93% 28.88 in 1.2 mi ESE 17.3 mph 27.6 mph 0.02 in Snow Light Snow
9:34 AM 32.0 °F 21.6 °F 32.0 °F 100% 28.89 in 0.8 mi ESE 15.0 mph 25.3 mph 0.03 in Snow Light Snow
9:41 AM 32.0 °F 21.2 °F 32.0 °F 100% 28.89 in 1.0 mi ESE 16.1 mph 24.2 mph 0.03 in Snow Light Snow
10:01 AM 33.8 °F 23.5 °F 30.2 °F 87% 28.91 in 1.0 mi ESE 16.1 mph 25.3 mph 0.04 in Snow Light Snow
10:41 AM 32.0 °F 21.2 °F 32.0 °F 100% 28.95 in 1.0 mi ESE 16.1 mph 27.6 mph 0.08 in Snow Light Snow
10:53 AM 32.0 °F 22.5 °F 30.9 °F 96% 28.96 in 1.0 mi ESE 12.7 mph 24.2 mph 0.09 in Snow Light Snow
11:32 AM 33.8 °F 24.8 °F 30.2 °F 87% 28.99 in 1.8 mi SE 12.7 mph 24.2 mph 0.01 in Snow Light Snow
11:40 AM 32.0 °F 23.6 °F 32.0 °F 100% 29.00 in 0.8 mi SSE 10.4 mph 21.9 mph 0.01 in Snow Light Snow
11:53 AM 32.0 °F 24.8 °F 32.0 °F 100% 29.02 in 1.0 mi SE 8.1 mph - 0.03 in Snow Light Snow
11:55 AM 32.0 °F 26.4 °F 32.0 °F 100% 29.02 in 0.5 mi SSE 5.8 mph - 0.00 in Fog , Snow Snow
12:02 PM 32.0 °F 24.8 °F 32.0 °F 100% 29.02 in 1.0 mi SE 8.1 mph - 0.01 in Snow Light Snow
12:23 PM 30.2 °F 24.3 °F 30.2 °F 100% 29.04 in 0.2 mi SE 5.8 mph - 0.06 in Fog , Snow Heavy Snow
12:38 PM 30.2 °F 24.3 °F 30.2 °F 100% 29.06 in 1.0 mi SSE 5.8 mph - 0.09 in Snow Light Snow
12:53 PM 28.0 °F 19.3 °F 28.0 °F 100% 29.08 in 1.0 mi WSW 9.2 mph - 0.13 in Snow Light Snow
1:11 PM 28.4 °F 18.5 °F 28.4 °F 100% 29.09 in 1.0 mi WSW 11.5 mph - 0.03 in Snow Light Snow
1:28 PM 28.4 °F 18.5 °F 28.4 °F 100% 29.10 in 0.2 mi WSW 11.5 mph - 0.11 in Fog , Snow Heavy Snow
1:53 PM 28.0 °F 18.6 °F 28.0 °F 100% 29.11 in 0.5 mi West 10.4 mph - 0.16 in Fog , Snow Snow
2:37 PM 26.6 °F 16.2 °F 26.6 °F 100% 29.12 in 0.8 mi West 11.5 mph - 0.05 in Snow Light Snow
2:53 PM 26.1 °F 16.8 °F 26.1 °F 100% 29.13 in 0.8 mi West 9.2 mph - 0.06 in Snow Light Snow
3:53 PM 24.1 °F 13.7 °F 24.1 °F 100% 29.17 in 0.5 mi West 10.4 mph - 0.06 in Fog , Snow Snow
4:12 PM 24.8 °F 13.4 °F 23.0 °F 93% 29.18 in 1.2 mi West 12.7 mph - 0.01 in Snow Light Snow
4:51 PM 21.2 °F 8.9 °F 21.2 °F 100% 29.20 in 3.0 mi West 12.7 mph - 0.01 in Snow Light Snow
4:53 PM 21.9 °F 11.0 °F 21.0 °F 96% 29.21 in 4.0 mi West 10.4 mph - 0.01 in Snow Light Snow
5:20 PM 21.2 °F 8.9 °F 21.2 °F 100% 29.22 in 1.5 mi West 12.7 mph 19.6 mph 0.00 in Snow Light Snow
5:27 PM 21.2 °F 9.5 °F 19.4 °F 93% 29.22 in 2.0 mi WSW 11.5 mph - 0.00 in Snow Light Snow
5:53 PM 21.0 °F 8.6 °F 19.0 °F 92% 29.24 in 3.0 mi WSW 12.7 mph - 0.00 in Snow Light Snow
6:00 PM 21.2 °F 8.3 °F 19.4 °F 93% 29.23 in 2.0 mi WSW 13.8 mph - 0.00 in Snow Light Snow
6:53 PM 19.9 °F 8.6 °F 17.1 °F 89% 29.27 in 10.0 mi WSW 10.4 mph - 0.00 in   Overcast
7:53 PM 19.0 °F 6.1 °F 16.0 °F 88% 29.28 in 3.0 mi WSW 12.7 mph - 0.00 in Snow Light Snow
8:53 PM 18.0 °F 6.9 °F 16.0 °F 92% 29.29 in 9.0 mi WSW 9.2 mph - 0.00 in   Overcast
9:53 PM 18.0 °F 6.9 °F 15.1 °F 88% 29.30 in 7.0 mi West 9.2 mph - 0.00 in Snow Light Snow
10:13 PM 17.6 °F 5.0 °F 15.8 °F 93% 29.29 in 7.0 mi West 11.5 mph - 0.00 in Snow Light Snow
10:23 PM 17.6 °F 4.3 °F 15.8 °F 93% 29.29 in 3.0 mi WSW 12.7 mph - 0.00 in Snow Light Snow
10:53 PM 17.1 °F 5.8 °F 15.1 °F 92% 29.30 in 2.5 mi WSW 9.2 mph - 0.01 in Snow Light Snow
11:04 PM 17.6 °F 4.3 °F 15.8 °F 93% 29.29 in 2.5 mi WSW 12.7 mph - 0.00 in Snow Light Snow
11:18 PM 17.6 °F 5.7 °F 14.0 °F 86% 29.29 in 3.0 mi WSW 10.4 mph - 0.00 in Snow Light Snow
11:34 PM 17.6 °F 5.7 °F 15.8 °F 93% 29.29 in 2.5 mi WSW 10.4 mph - 0.00 in Snow Light Snow
11:40 PM 17.6 °F 6.4 °F 15.8 °F 93% 29.28 in 3.0 mi West 9.2 mph - 0.00 in Snow Light Snow
11:51 PM 17.6 °F 5.0 °F 14.0 °F 86% 29.28 in 2.5 mi WSW 11.5 mph - 0.00 in Snow Light Snow
11:53 PM 17.1 °F 5.0 °F 14.0 °F 88% 29.28 in 2.5 mi WSW 10.4 mph - 0.00 in Snow Light Snow